Weather History for Rockport, TX

Change the Weather History Date:

Friday, February 1, 2013

  Actual Average Record
Temperature  
Mean Temperature 60 °F -  
Max Temperature 71 °F 65 °F 84 °F (1963)
Min Temperature 50 °F 50 °F 24 °F (1985)
Degree Days  
Heating Degree Days 4    
Growing Degree Days 10 (Base 50)    
Moisture  
Dew Point 50 °F    
Average Humidity 66    
Maximum Humidity 89    
Minimum Humidity 42    
Precipitation  
Precipitation 0.00 in - - ()
Sea Level Pressure  
Sea Level Pressure 30.29 in    
Wind  
Wind Speed 6 mph (SE)    
Max Wind Speed 14 mph    
Max Gust Speed -    
Visibility 10 miles    
Events      
Averages and records for this station are not official NWS values.
T = Trace of Precipitation, MM = Missing Value Source: NWS Daily Summary

Daily Weather History Graph

Daily Weather History Graph

Search for Another Location

Airport:

Trip Planner

Search our weather history database for the weather conditions in past years. The results will help you decide how hot, cold, wet, or windy it might be!

Date:

Astronomy

Feb. 01, 2013 Rise Set
Actual Time 7:15 AM CST 6:08 PM CST
Civil Twilight 6:50 AM CST 6:33 PM CST
Nautical Twilight 6:22 AM CST 7:01 PM CST
Astronomical Twilight 5:54 AM CST 7:29 PM CST
Moon 11:40 PM CST (2/1) 10:23 AM CST (2/1)
Length of Visible Light 11h 42m
Length of Day
10h 53m
Waning Gibbous, 70% of the Moon is Illuminated
Feb 1
Waning Gibbous
Feb 3
Last Quarter
Feb 10
New
Feb 17
First Quarter
Feb 25
Full

Hourly Weather History & Observations

Time (CST) Temp. Dew Point Humidity Pressure Visibility Wind Dir Wind Speed Gust Speed Precip Events Conditions
12:53 AM 57.0 °F 48.9 °F 74% 30.30 in 10.0 mi SSE 4.6 mph - N/A   Clear
1:53 AM 59.0 °F 50.0 °F 72% 30.29 in 10.0 mi SSE 3.5 mph - N/A   Clear
2:53 AM 57.9 °F 51.1 °F 78% 30.29 in 10.0 mi SSE 3.5 mph - N/A   Clear
3:53 AM 55.9 °F 51.1 °F 84% 30.30 in 10.0 mi SSE 3.5 mph - N/A   Clear
4:53 AM 54.0 °F 48.9 °F 83% 30.30 in 10.0 mi SSE 3.5 mph - N/A   Clear
5:53 AM 53.1 °F 48.9 °F 86% 30.30 in 10.0 mi Calm Calm - N/A   Clear
6:53 AM 50.0 °F 46.9 °F 89% 30.31 in 10.0 mi Calm Calm - N/A   Clear
8:53 AM 64.9 °F 52.0 °F 63% 30.35 in 10.0 mi SSE 3.5 mph - N/A   Clear
9:53 AM 68.0 °F 51.1 °F 55% 30.37 in 10.0 mi SE 8.1 mph - N/A   Clear
10:53 AM 69.1 °F 48.9 °F 49% 30.36 in 10.0 mi SSE 9.2 mph - N/A   Clear
11:53 AM 70.0 °F 48.9 °F 47% 30.34 in 10.0 mi SE 11.5 mph - N/A   Clear
12:53 PM 71.1 °F 48.0 °F 44% 30.32 in 10.0 mi SE 10.4 mph - N/A   Clear
1:53 PM 70.0 °F 46.0 °F 42% 30.28 in 10.0 mi SSE 13.8 mph - N/A   Clear
2:53 PM 69.1 °F 46.9 °F 45% 30.27 in 10.0 mi SE 10.4 mph - N/A   Clear
3:53 PM 69.1 °F 48.0 °F 47% 30.25 in 10.0 mi ESE 12.7 mph - N/A   Clear
4:53 PM 66.9 °F 45.0 °F 45% 30.25 in 10.0 mi SE 12.7 mph - N/A   Clear
5:53 PM 64.0 °F 48.0 °F 56% 30.24 in 10.0 mi ESE 11.5 mph - N/A   Clear
6:53 PM 62.1 °F 51.1 °F 67% 30.24 in 10.0 mi SE 10.4 mph - N/A   Clear
7:53 PM 62.1 °F 53.1 °F 72% 30.25 in 10.0 mi SE 9.2 mph - N/A   Clear
8:53 PM 61.0 °F 54.0 °F 78% 30.25 in 10.0 mi SE 5.8 mph - N/A   Clear
9:53 PM 61.0 °F 55.0 °F 81% 30.25 in 10.0 mi SE 6.9 mph - N/A   Clear
10:53 PM 60.1 °F 55.0 °F 83% 30.25 in 10.0 mi SE 4.6 mph - N/A   Clear
11:53 PM 61.0 °F 57.0 °F 87% 30.22 in 10.0 mi SSE 3.5 mph - N/A   Mostly Cloudy